Auckland, New Zealand

8:36 PM NZST on August 18, 2018 (GMT +1200)
Auckland International

Weather History for NZAA - February, 2018

Change the Weather History Date:

Tuesday, February 13, 2018

  Actual Average Record
Temperature  
Mean Temperature 73 °F -  
Max Temperature 75 °F 73 °F 80 °F (2016)
Min Temperature 71 °F 60 °F 60 °F (2015)
Cooling Degree Days 8    
Growing Degree Days 23 (Base 50)    
Moisture  
Dew Point 72 °F    
Average Humidity 96    
Maximum Humidity 100    
Minimum Humidity 89    
Precipitation  
Precipitation 0.00 in - - ()
Sea Level Pressure  
Sea Level Pressure 29.91 in    
Wind  
Wind Speed 9 mph ()    
Max Wind Speed 18 mph    
Max Gust Speed 28 mph    
Visibility 5.4 miles    
Events Rain    
Averages and records for this station are not official NWS values.
T = Trace of Precipitation, MM = Missing Value Source: Averaged Metar Reports

Daily Weather History Graph

Daily Weather History Graph

Search for Another Location

Airport or City:

Astronomy

Feb. 13, 2018 Rise Set
Actual Time 6:48 AM NZDT 8:20 PM NZDT
Civil Twilight 6:21 AM NZDT 8:48 PM NZDT
Nautical Twilight 5:48 AM NZDT 9:21 PM NZDT
Astronomical Twilight 5:13 AM NZDT 9:55 PM NZDT
Moon 4:04 AM NZDT (2/13) 6:35 PM NZDT (2/13)
Length of Visible Light 14h 26m
Length of Day
13h 31m
Waning Crescent, 8% of the Moon is Illuminated
Feb 13
Waning Crescent
Feb 16
New
Feb 23
First Quarter
Mar 2
Full
Mar 10
Last Quarter

Hourly Weather History & Observations

Time (NZDT) Temp. Dew Point Humidity Pressure Visibility Wind Dir Wind Speed Gust Speed Precip Events Conditions
12:00 AM 73.4 °F 73.4 °F 100% 29.89 in 3.1 mi North 9.2 mph - N/A   Overcast
12:30 AM 73.4 °F 73.4 °F 100% 29.89 in 3.1 mi North 9.2 mph - N/A   Overcast
1:00 AM 73.4 °F 73.4 °F 100% 29.89 in 6.2 mi North 11.5 mph - N/A   Overcast
1:30 AM 73.4 °F 73.4 °F 100% 29.89 in 6.2 mi North 13.8 mph - N/A   Overcast
2:00 AM 73.4 °F 73.4 °F 100% 29.89 in 6.2 mi North 9.2 mph - N/A Rain Light Rain
2:30 AM 73.4 °F 73.4 °F 100% 29.89 in - North 10.4 mph - N/A Rain Light Rain
3:30 AM 73.4 °F 73.4 °F 100% 29.89 in 3.7 mi North 5.8 mph - N/A Rain Rain
4:00 AM 73.4 °F 71.6 °F 94% 29.89 in 6.2 mi North 6.9 mph - N/A Rain Light Rain
4:30 AM 73.4 °F 71.6 °F 94% 29.89 in - North 8.1 mph - N/A Rain Light Rain
5:00 AM 73.4 °F 73.4 °F 100% 29.89 in 3.7 mi North 8.1 mph - N/A Rain Rain
5:30 AM 73.4 °F 71.6 °F 94% 29.89 in 6.2 mi North 9.2 mph - N/A Rain Light Rain
6:30 AM 73.4 °F 71.6 °F 94% 29.89 in 6.2 mi NNE 8.1 mph - N/A   Light Drizzle
7:00 AM 71.6 °F 71.6 °F 100% 29.89 in 5.0 mi NNE 9.2 mph - N/A   Overcast
7:30 AM 71.6 °F 71.6 °F 100% 29.89 in 1.7 mi NNE 8.1 mph - N/A   Drizzle
8:00 AM 73.4 °F 71.6 °F 94% 29.89 in 1.8 mi NNE 8.1 mph - N/A Rain Light Rain
8:30 AM 71.6 °F 71.6 °F 100% 29.89 in 3.1 mi NNE 10.4 mph - N/A Rain Light Rain
9:00 AM 71.6 °F 71.6 °F 100% 29.92 in 5.0 mi NNE 12.7 mph - N/A Rain Light Rain
9:30 AM 73.4 °F 71.6 °F 94% 29.92 in 6.2 mi NNE 9.2 mph - N/A Rain Light Rain
10:00 AM 73.4 °F 71.6 °F 94% 29.95 in 5.6 mi North 11.5 mph - N/A Rain Light Rain
10:30 AM 71.6 °F 71.6 °F 100% 29.92 in 4.3 mi NNE 13.8 mph - N/A Rain Light Rain
11:00 AM 71.6 °F 71.6 °F 100% 29.92 in 6.2 mi NNE 16.1 mph - N/A Rain Light Rain
11:30 AM 73.4 °F 71.6 °F 94% 29.95 in 5.0 mi North 12.7 mph - N/A Rain Light Rain
12:00 PM 73.4 °F 71.6 °F 94% 29.92 in 6.2 mi NE 15.0 mph - N/A Rain Light Rain
12:30 PM 73.4 °F 71.6 °F 94% 29.89 in 6.2 mi NNE 18.4 mph - N/A Rain Light Rain
1:00 PM 73.4 °F 71.6 °F 94% 29.89 in 5.6 mi NNE 15.0 mph - N/A Rain Light Rain
2:00 PM 73.4 °F 71.6 °F 94% 29.92 in 5.0 mi NNE 16.1 mph 27.6 mph N/A Rain Light Rain
2:30 PM 73.4 °F 71.6 °F 94% 29.95 in 6.2 mi North 11.5 mph - N/A Rain Light Rain
3:30 PM 75.2 °F 71.6 °F 89% 29.92 in 6.2 mi North 15.0 mph - N/A   Mostly Cloudy
4:00 PM 75.2 °F 71.6 °F 89% 29.92 in 6.2 mi North 13.8 mph - N/A   Mostly Cloudy
4:30 PM 73.4 °F 71.6 °F 94% 29.92 in 6.2 mi North 13.8 mph - N/A   Mostly Cloudy
5:00 PM 73.4 °F 71.6 °F 94% 29.89 in 6.2 mi NNE 12.7 mph - N/A   Mostly Cloudy
6:00 PM 73.4 °F 71.6 °F 94% 29.89 in 6.2 mi NNE 9.2 mph - N/A Rain Light Rain
6:30 PM 73.4 °F 71.6 °F 94% 29.89 in 6.2 mi NNE 9.2 mph - N/A Rain Light Rain
7:00 PM 75.2 °F 71.6 °F 89% 29.89 in 6.2 mi NNE 5.8 mph - N/A   Partly Cloudy
7:30 PM 73.4 °F 71.6 °F 94% 29.89 in 6.2 mi North 4.6 mph - N/A   Partly Cloudy
8:00 PM 73.4 °F 71.6 °F 94% 29.92 in 6.2 mi North 5.8 mph - N/A   Mostly Cloudy
8:30 PM 73.4 °F 71.6 °F 94% 29.92 in 6.2 mi NNE 8.1 mph - N/A   Mostly Cloudy
9:00 PM 73.4 °F 71.6 °F 94% 29.92 in 6.2 mi NNE 5.8 mph - N/A   Overcast
9:30 PM 73.4 °F 71.6 °F 94% 29.92 in 6.2 mi NNE 6.9 mph - N/A   Overcast
10:00 PM 73.4 °F 71.6 °F 94% 29.92 in 6.2 mi NNE 6.9 mph - N/A   Overcast
11:00 PM 71.6 °F 69.8 °F 94% 29.95 in 6.2 mi NNE 6.9 mph - N/A   Unknown
11:30 PM 71.6 °F 69.8 °F 94% 29.95 in 6.2 mi North 9.2 mph - N/A   Mostly Cloudy